Location: ????? ??????
(37.4243°N, 71.4880°E)
Time: 14:51:36
(UTC+00:00)

Daily predictions for brighter satellites

Satellite Brightness Start Highest point End
(mag) Time Altitude Azimuth Time Altitude Azimuth Time Altitude Azimuth
ADEOS Rocket 4.0 12:15:32 10° N 12:23:13 72° WNW 12:30:54 10° SSW
Cosmos 1743 Rocket 3.6 12:19:11 10° N 12:23:40 80° E 12:28:05 10° S
COSMO-SKYMED 1 4.0 12:21:57 10° NE 12:25:02 19° E 12:28:06 10° SE
Cosmos 2237 Rocket 2.3 12:20:00 10° SSW 12:25:36 90° SE 12:31:16 10° NNE
Sich 1 3.7 12:26:36 10° NNE 12:30:33 32° ENE 12:34:26 10° SE
ERS-2 3.1 12:27:23 10° NE 12:30:36 29° E 12:33:48 10° SSE
Lacrosse 5 rocket 2.1 12:29:28 10° S 12:32:46 30° SE 12:35:58 10° ENE
AQUARIUS 4.3 12:28:29 10° SSE 12:32:51 52° ENE 12:37:13 10° N
Okean O Rocket 1.6 12:31:15 10° SSE 12:35:30 56° ENE 12:39:47 10° N
Cosmos 1862 3.4 12:31:49 10° N 12:35:52 87° WSW 12:39:51 10° S
CORIOLIS 4.2 12:30:40 10° SSE 12:35:55 57° ENE 12:41:14 10° N
USA 215 3.3 12:30:05 10° NE 12:36:40 84° SE 12:43:12 10° SW
Cosmos 2154 Rocket 4.1 12:33:47 10° N 12:40:09 85° E 12:46:30 10° S
Cosmos 1151 Rocket 4.0 12:37:32 10° SE 12:41:03 25° E 12:44:32 10° NE
Cosmos 1805 Rocket 3.6 12:39:10 10° N 12:43:35 63° E 12:47:58 10° SSE
Cosmos 1980 4.3 12:38:26 10° SW 12:44:01 59° WNW 12:49:39 10° NNE
CZ-4 R/B 3.4 12:50:47 11° NE 12:50:47 11° NE 12:51:04 10° NE
GENESIS II 4.5 12:45:28 10° NNW 12:49:15 44° NE 12:52:57 10° SE
Cosmos 1328 Rocket 4.4 12:45:51 10° SSE 12:49:28 27° E 12:53:07 10° NNE
Cosmos 1689 Rocket 3.6 12:48:58 16° ENE 12:49:48 18° E 12:51:52 10° SE
Cosmos 1666 Rocket 4.2 12:45:54 10° NNE 12:49:54 33° ENE 12:53:53 10° SE
Cosmos 2341 Rocket 4.1 12:44:11 10° N 12:50:20 53° E 12:56:29 10° SSE
YAOGAN 6 4.4 12:55:53 10° SSW 12:59:17 36° W 13:02:41 10° NNW
Cosmos 1939 Rocket 3.3 12:56:05 10° SE 12:59:36 36° ENE 13:03:11 10° N
Cosmos 1867 3.6 12:54:19 10° SSW 12:59:44 86° WNW 13:05:13 10° NNE
Cosmos 389 Rocket 2.9 13:00:50 10° SSW 13:04:14 62° W 13:07:38 10° N
CZ-2C R/B 3.9 13:01:33 10° SE 13:05:47 26° ENE 13:09:52 10° NNE
USA 267 4.1 13:02:52 17° ENE 13:06:54 31° NNE 13:12:26 10° NNW
Cosmos 1943 Rocket 3.3 13:04:21 10° N 13:08:30 21° NE 13:09:24 20° ENE
H-2A R/B 4.0 13:05:01 10° NNW 13:08:35 28° WNW 13:12:11 10° SW
Cosmos 2297 4.2 13:05:03 10° N 13:10:18 37° ENE 13:15:33 10° SE
Cosmos 1818 3.8 13:05:28 10° NNW 13:10:56 75° WSW 13:16:21 10° SSE
SL-8 Rocket 4.0 13:05:24 10° N 13:11:34 59° E 13:17:44 10° SSE
SKYMED 2 3.5 13:09:00 10° NNE 13:13:20 68° ESE 13:17:38 10° S
SL-16 R/B 2.1 13:08:25 10° SSW 13:14:04 80° ESE 13:19:45 10° NNE
Meteor 2-12 Rocket 4.5 13:08:01 10° N 13:14:12 87° W 13:20:18 10° S
Cosmos 2181 Rocket 4.0 13:08:48 10° S 13:15:13 76° E 13:21:37 10° N
Cosmos 1125 Rocket 4.1 13:14:36 10° NNW 13:19:43 58° WSW 13:24:49 10° S
Cosmos 1633 Rocket 3.0 13:15:35 10° N 13:19:54 59° E 13:24:11 10° SSE
ISS -1.2 13:19:15 10° NW 13:20:42 12° NNW 13:22:04 10° N
Meteor 1-26 Rocket 4.3 13:19:16 10° S 13:25:11 67° E 13:31:10 10° NNE
SL-24 DEB 4.2 13:27:03 10° NNE 13:31:46 60° E 13:36:24 10° S
CZ-4B R/B 3.4 13:29:33 10° NNW 13:32:11 26° WNW 13:34:51 10° SW
IRS-1C Rocket 4.0 13:29:26 10° SSE 13:34:42 80° ENE 13:40:00 10° N
Cosmos 1933 4.1 13:30:53 10° SSW 13:34:48 53° W 13:38:46 10° N
USA 281 3.2 13:28:54 10° SE 13:35:14 54° ENE 13:41:36 10° NNW
SL-24 R/B 3.8 13:32:28 11° N 13:36:14 78° WNW 13:39:54 10° SSW
Meteor 1-20 Rocket 4.4 13:38:32 10° N 13:44:24 81° W 13:50:12 10° S
YAOGAN 1 3.9 13:47:24 25° N 13:47:24 25° N 13:49:21 10° N
Cosmos 2278 Rocket 4.4 13:41:21 10° NW 13:46:00 26° WSW 13:50:37 10° SSW
CZ-4 R/B 4.4 13:42:22 10° S 13:46:31 83° WSW 13:50:40 10° NNW
Cosmos 1782 2.8 13:46:10 10° S 13:50:06 80° W 13:51:18 43° N
SL-23 DEB 4.3 13:46:48 10° WSW 13:50:27 67° NW 13:51:51 44° NNE
X-37B 2.0 13:48:47 10° SW 13:50:46 32° SSW 13:50:46 32° SSW
Abrixas rocket 4.0 13:49:51 10° W 13:52:09 24° SW 13:52:09 24° SW
Cosmos 1470 Rocket 3.3 13:51:47 10° N 13:56:08 85° E 14:00:26 10° S
Helios 1A Rocket 3.8 13:53:22 10° SSE 13:58:55 37° NNW 14:01:26 10° NNW
BREEZE-M DEB (TANK) 2.6 13:53:31 10° SW 13:56:48 50° SSW 13:56:48 50° SSW
Cosmos 773 Rocket 4.5 13:52:29 10° SSW 13:57:38 60° WNW 14:01:22 19° N
H-2A R/B 2.5 14:00:00 43° NNE 14:00:00 43° NNE 14:03:46 10° N
Cosmos 2218 Rocket 4.2 13:52:56 10° NNW 13:59:01 69° W 14:05:07 10° S
Cosmos 1515 Rocket 3.5 13:55:08 10° S 13:59:28 79° W 14:00:34 50° N
MOS 1 Rocket 3.5 13:55:26 17° NNE 13:59:40 90° ESE 14:05:04 10° SSW
Meteor 1-4 Rocket 3.3 13:57:08 10° SSW 14:00:42 52° W 14:01:02 50° WNW
COSMO-SKYMED 1 4.2 13:57:21 10° N 14:01:14 33° WNW 14:05:07 10° SW
Okean-O 2.6 13:57:35 10° S 14:02:01 82° WSW 14:06:28 10° NNW
NOSS 3-2 (A) 4.5 14:00:56 10° S 14:03:35 25° SSE 14:03:35 25° SSE
Cosmos 2366 rocket 4.5 14:02:45 10° NNW 14:08:50 59° W 14:14:50 10° S
Cosmos 1603 3.9 14:03:20 10° S 14:07:57 51° SE 14:07:57 51° SE
Lacrosse 5 rocket 3.0 14:08:51 10° W 14:11:37 23° NW 14:11:37 23° NW
Cosmos 44 3.4 14:09:25 10° NNW 14:14:45 87° NNE 14:14:45 87° NNE
FALCON 9 R/B 3.6 14:13:53 10° WSW 14:14:22 16° WSW 14:14:22 16° WSW
Cosmos 1943 3.8 14:13:25 10° S 14:17:13 42° SSE 14:17:13 42° SSE
USA 238 DEB 4.5 14:14:50 10° S 14:18:46 33° SSE 14:18:46 33° SSE
USA 238 4.5 14:14:56 10° S 14:18:50 33° SSE 14:18:50 33° SSE
CZ-4 R/B 3.9 14:20:07 10° S 14:26:49 14° NNW 14:27:31 10° NNW
Cosmos 2369 Rocket 3.7 14:21:55 10° NNW 14:24:09 24° N 14:24:09 24° N
USA 267 3.3 14:50:15 70° NW 14:50:15 70° NW 14:55:58 10° NW
Cosmos 1943 Rocket 3.2 14:47:09 10° NNW 14:51:01 40° WNW 14:51:01 40° WNW
Cosmos 2263 Rocket 4.3 22:40:41 22° ESE 22:41:07 23° E 22:45:25 10° NE
Milstar 3 Cent rocket 3.8 23:05:49 38° S 23:06:40 39° SSE 23:17:05 10° E
SJ 16-02 4.5 23:05:14 10° ESE 23:07:08 13° E 23:09:02 10° ENE
CENTAUR R/B 4.2 23:10:44 25° N 23:15:03 41° NE 23:23:15 10° ESE
ATLAS 2AS CENTAUR R/B 4.2 23:10:54 10° S 23:18:04 40° ESE 23:25:19 10° NE
Cosmos 2227 4.5 23:29:41 58° SSE 23:30:27 64° ESE 23:36:01 10° NNE
Atlas Centaur 2 4.0 23:29:11 22° S 23:30:33 23° SSE 23:34:51 10° ESE
NOSS 3-2 (A) 4.3 23:28:07 40° NNW 23:31:16 69° NE 23:39:51 10° SE
ARGOS Delta rocket 3.9 23:41:20 10° NNE 23:46:30 81° E 23:51:20 10° S
USA 238 DEB 4.0 23:43:27 35° NNW 23:46:50 74° ENE 23:54:24 10° SE
USA 238 4.0 23:43:31 35° NNW 23:46:56 73° ENE 23:54:29 10° SE
Meteor 1-31 Rocket 4.4 23:47:52 10° NNE 23:53:34 26° SSE 23:55:21 10° S
SL-16 R/B 3.5 23:56:53 26° SSW 23:56:53 26° SSW 23:59:34 10° S
